Вернуться в каталог

TRANSIT 4B

АктивенНавигацияLEO
NORAD 202·PAYLOAD·🇺🇸 United States

Запущен Nov 15, 1961 с Cape Canaveral Space Force Station

Loading…

Ближайшие Пролёты (ближайшие 24 часа)

TLE

СвежийSource: Space-Track

Эпоха: Sep 14, 2026, 08:17 UTC

1 00202U 61031A   26257.34522377  .00000028  00000-0  59178-5 0  9995
2 00202  32.4372 275.7124 0100935 172.1665 188.0555 13.63798053233174

Отслеживайте TRANSIT 4B в реальном времени с AllMySat

Download on the App Store